Regional Weather Roundup
Issued by NWS

Home | Current Version | Previous Version | Text Only | Print | Product List | Glossary Off
Versions: 1 2 3 4 5 6 7 8 9 10 11 12 13 14 15 16 17 18 19 20 21 22 23 24 25 26 27 28 29 30 31 32 33 34 35 36 37 38 39 40 41 42 43 44 45 46 47 48 49 50

000
ASUS44 KMEG 261400
RWRTN
TENNESSEE HOURLY STATE WEATHER ROUNDUP
NATIONAL WEATHER SERVICE MEMPHIS TN
800 AM CST SUN FEB 26 2017

TNZ002-004-019-021-049-052-054-088>092-261500-
WEST TENNESSEE

CITY           SKY/WX    TMP DP  RH WIND       PRES   REMARKS
MEMPHIS INTL   MOSUNNY   39  22  50 SE5       30.17S
NWS MEMPHIS      N/A     34 N/A N/A MISG        N/A
JACKSON        SUNNY     34  28  79 CALM      30.22R
UNION CITY     SUNNY     34  21  60 CALM      30.20R
PARIS          SUNNY     30  21  69 SE9       30.20R WCI  22
$$

TNZ008-025-027-028-033-062-065-066-261500-
NORTH MIDDLE TENNESSEE

CITY           SKY/WX    TMP DP  RH WIND       PRES   REMARKS
NASHVILLE      SUNNY     35  29  78 E6        30.23F WCI  30
CLARKSVILLE    SUNNY     30  23  75 SE5       30.23R WCI  25
SMYRNA         SUNNY     29  27  92 SE3       30.25S
CROSSVILLE     SUNNY     30  18  60 E6        30.21R WCI  24
$$

TNZ061-075-076-078-094-096-097-261500-
SOUTH MIDDLE TENNESSEE

CITY           SKY/WX    TMP DP  RH WIND       PRES   REMARKS
TULLAHOMA      SUNNY     32  21  64 SE6       30.23R WCI  26
WINCHESTER     SUNNY     32  25  74 SE5       30.24R WCI  27
MCMINNVILLE    SUNNY     34  25  69 E3        30.22S
COLUMBIA       SUNNY     30  30 100 CALM      30.21R
SHELBYVILLE    SUNNY     34  27  75 SE5       30.24R WCI  30
$$

TNZ017-018-042-046-047-261500-
NORTHEAST TENNESSEE

CITY           SKY/WX    TMP DP  RH WIND       PRES   REMARKS
TRI CITIES     SUNNY     33  19  56 W8        30.22R WCI  26
$$

TNZ012-013-036-069-073-074-261500-
CENTRAL EAST TENNESSEE

CITY           SKY/WX    TMP DP  RH WIND       PRES   REMARKS
KNOXVILLE      SUNNY     35  22  58 NE5       30.25R WCI  31
OAK RIDGE      SUNNY     33  26  75 CALM      30.27R
GATLINBURG     SUNNY     32  25  74 CALM      30.26R
$$

TNZ083-085-099-261500-
SOUTHEAST TENNESSEE

CITY           SKY/WX    TMP DP  RH WIND       PRES   REMARKS
CHATTANOOGA    SUNNY     38  24  57 N7        30.26R WCI  33
$$

SKY/WX REPORTED AS FAIR MEANS FEW OR NO CLOUDS BELOW
12 THOUSAND FEET.





USA.gov is the U.S. government's official web portal to all federal, state and local government web resources and services.